Weather History for Hyannis, MA

Change the Weather History Date:

Sunday, June 23, 2013

  Actual Average Record
Temperature  
Mean Temperature 72 °F -  
Max Temperature 78 °F 75 °F 88 °F (1963)
Min Temperature 66 °F 58 °F 41 °F (1964)
Cooling Degree Days 6    
Growing Degree Days 22 (Base 50)    
Moisture  
Dew Point 65 °F    
Average Humidity 84    
Maximum Humidity 94    
Minimum Humidity 66    
Precipitation  
Precipitation 0.00 in - - ()
Sea Level Pressure  
Sea Level Pressure 30.13 in    
Wind  
Wind Speed 12 mph (SW)    
Max Wind Speed 18 mph    
Max Gust Speed 26 mph    
Visibility 10 miles    
Events      
Averages and records for this station are not official NWS values.
T = Trace of Precipitation, MM = Missing Value Source: NWS Daily Summary

Daily Weather History Graph

Daily Weather History Graph

Search for Another Location

Airport:

Trip Planner

Search our weather history database for the weather conditions in past years. The results will help you decide how hot, cold, wet, or windy it might be!

Date:

Astronomy

Jun. 23, 2013 Rise Set
Actual Time 5:07 AM EDT 8:19 PM EDT
Civil Twilight 4:33 AM EDT 8:53 PM EDT
Nautical Twilight 3:49 AM EDT 9:37 PM EDT
Astronomical Twilight 2:56 AM EDT 10:30 PM EDT
Moon 8:27 PM EDT (6/23) 5:22 AM EDT (6/23)
Length of Visible Light 16h 20m
Length of Day
15h 12m
Full, 100% of the Moon is Illuminated
Jun 23
Full
Jun 30
Last Quarter
Jul 8
New
Jul 15
First Quarter
Jul 22
Full

Hourly Weather History & Observations

Time (EDT) Temp. Dew Point Humidity Pressure Visibility Wind Dir Wind Speed Gust Speed Precip Events Conditions
12:56 AM 66.9 °F 64.0 °F 90% 30.19 in 10.0 mi SSW 10.4 mph - N/A   Partly Cloudy
1:56 AM 66.9 °F 64.0 °F 90% 30.18 in 10.0 mi SW 13.8 mph 18.4 mph N/A   Partly Cloudy
2:53 AM 66.2 °F 64.4 °F 94% 30.16 in 10.0 mi SW 10.4 mph - N/A   Mostly Cloudy
2:54 AM 66.9 °F 64.0 °F 90% 30.17 in 10.0 mi SW 10.4 mph - N/A   Mostly Cloudy
3:56 AM 66.0 °F 64.0 °F 93% 30.16 in 10.0 mi SW 10.4 mph - N/A   Overcast
4:56 AM 66.0 °F 64.0 °F 93% 30.16 in 10.0 mi SSW 9.2 mph - N/A   Mostly Cloudy
5:07 AM 66.2 °F 62.6 °F 88% 30.16 in 10.0 mi SW 8.1 mph - N/A   Scattered Clouds
5:56 AM 66.0 °F 63.0 °F 90% 30.17 in 10.0 mi SSW 8.1 mph - N/A   Scattered Clouds
6:11 AM 66.2 °F 64.4 °F 94% 30.16 in 10.0 mi SSW 8.1 mph - N/A   Partly Cloudy
6:56 AM 66.9 °F 63.0 °F 87% 30.17 in 10.0 mi SSW 10.4 mph - N/A   Clear
7:56 AM 68.0 °F 63.0 °F 84% 30.18 in 10.0 mi SSW 9.2 mph - N/A   Clear
8:56 AM 71.1 °F 64.0 °F 78% 30.18 in 10.0 mi SSW 9.2 mph - N/A   Clear
9:56 AM 73.0 °F 64.0 °F 73% 30.17 in 10.0 mi SSW 11.5 mph - N/A   Clear
10:56 AM 73.0 °F 64.0 °F 73% 30.16 in 10.0 mi SSW 10.4 mph - N/A   Clear
11:56 AM 75.0 °F 64.9 °F 71% 30.15 in 10.0 mi SW 12.7 mph - N/A   Clear
12:56 PM 75.9 °F 64.9 °F 69% 30.14 in 10.0 mi SSW 16.1 mph - N/A   Clear
1:56 PM 75.9 °F 64.0 °F 67% 30.12 in 10.0 mi SW 17.3 mph - N/A   Clear
2:56 PM 77.0 °F 64.9 °F 66% 30.10 in 10.0 mi SW 17.3 mph 25.3 mph N/A   Clear
3:56 PM 75.9 °F 66.0 °F 71% 30.09 in 10.0 mi SSW 18.4 mph 25.3 mph N/A   Clear
4:56 PM 75.0 °F 66.0 °F 73% 30.08 in 10.0 mi SSW 13.8 mph 23.0 mph N/A   Clear
5:56 PM 75.0 °F 66.9 °F 76% 30.07 in 10.0 mi SW 16.1 mph 25.3 mph N/A   Clear
6:56 PM 72.0 °F 66.9 °F 84% 30.08 in 10.0 mi SW 12.7 mph 23.0 mph N/A   Clear
7:19 PM 71.6 °F 68.0 °F 88% 30.08 in 10.0 mi SW 13.8 mph - N/A   Mostly Cloudy
7:56 PM 70.0 °F 66.9 °F 90% 30.08 in 10.0 mi SW 11.5 mph 19.6 mph N/A   Mostly Cloudy
8:56 PM 71.1 °F 69.1 °F 93% 30.07 in 9.0 mi SW 17.3 mph 26.5 mph N/A   Overcast
9:56 PM 71.1 °F 69.1 °F 93% 30.09 in 10.0 mi SW 15.0 mph 20.7 mph N/A   Overcast
10:56 PM 70.0 °F 68.0 °F 93% 30.09 in 10.0 mi SW 11.5 mph 23.0 mph N/A   Mostly Cloudy
11:04 PM 69.8 °F 68.0 °F 94% 30.08 in 10.0 mi SW 13.8 mph - N/A   Mostly Cloudy
11:54 PM 69.8 °F 68.0 °F 94% 30.07 in 10.0 mi SW 15.0 mph - N/A   Overcast
11:56 PM 70.0 °F 68.0 °F 93% 30.07 in 10.0 mi SW 16.1 mph - N/A   Overcast